Domaine Tourmalet, France 16 day weather forecast

Slopes altitude range 1250 m - 2880m

Number of lifts: 38 Pistes: 100km

In some cases the lift and piste totals shown are for the ski domain (e.g. Three Valleys) rather than individual resort (e.g. Courchevel)

Overview

The 16 day weather forecast is fully updated 4 times every day.

    • Sun 17 FEB 2019
    • Sun 17
    • 2C 11C
    • Mon 18 FEB 2019
    • Mon 18
    • 1C 10C
    • Tue 19 FEB 2019
    • Tue 19
    • 2C 10C
    • Wed 20 FEB 2019
    • Wed 20
    • 2C 11C
    • Thu 21 FEB 2019
    • Thu 21
    • 3C 11C
    • Fri 22 FEB 2019
    • Fri 22
    • 5C 16C
    • Sat 23 FEB 2019
    • Sat 23
    • 5C 12C
    • Sun 24 FEB 2019
    • Sun 24
    • 2C 10C
    • Mon 25 FEB 2019
    • Mon 25
    • 6C 15C
    • Tue 26 FEB 2019
    • Tue 26
    • 6C 15C
    • Wed 27 FEB 2019
    • Wed 27
    • 4C 16C
    • Thu 28 FEB 2019
    • Thu 28
    • 5C 14C
    • Fri 01 MAR 2019
    • Fri 01
    • 2C 11C
    • Sat 02 MAR 2019
    • Sat 02
    • 0C 10C
    • Sun 03 MAR 2019
    • Sun 03
    • 2C 15C
    • Mon 04 MAR 2019
    • Mon 04
    • 4C 14C

Date:

Time Type 0°C level Temp Chill Snow Cloud Speed Gust Dir Press
12:00 2481m 11°C 11_4 0cm 1% 4mph 6mph 1023mB
15:00 2434m 11°C 11_4 0cm 9% 4mph 6mph 1021mB
18:00 2110m 11°C 11_4 0cm 18% 4mph 5mph 1021mB
21:00 2021m 2°C 2_4 0cm 30% 4mph 5mph 1023mB
0:00 1944m 1°C 1_5 0cm 28% 5mph 6mph 1022mB
3:00 1960m 1°C 1_5 0cm 27% 5mph 6mph 1021mB
6:00 1952m 1°C 1_5 0cm 20% 5mph 5mph 1021mB
9:00 2194m 1°C 1_2 0cm 33% 2mph 4mph 1021mB
12:00 2166m 10°C 10_5 0cm 40% 5mph 6mph 1020mB
15:00 2173m 10°C 10_5 0cm 44% 5mph 6mph 1018mB
18:00 1931m 10°C 10_2 0cm 42% 2mph 3mph 1020mB
21:00 1900m 2°C 2_4 0cm 44% 4mph 5mph 1022mB
0:00 1833m 2°C 2_5 0cm 32% 5mph 5mph 1023mB
3:00 1842m 2°C 2_5 0cm 3% 5mph 6mph 1023mB
6:00 1883m 2°C 2_5 0cm 4% 5mph 6mph 1023mB
9:00 2038m 2°C 2_1 0cm 10% 1mph 2mph 1023mB
12:00 2014m 10°C 10_4 0cm 7% 4mph 3mph 1022mB
15:00 2052m 10°C 10_4 0cm 0% 4mph 3mph 1020mB
18:00 2075m 10°C 10_1 0cm 0% 1mph 1mph 1022mB
21:00 2078m 3°C 3_4 0cm 0% 4mph 5mph 1023mB
0:00 1933m 2°C 2_4 0cm 0% 4mph 4mph 1024mB
3:00 2130m 2°C 2_4 0cm 0% 4mph 5mph 1024mB
6:00 2140m 2°C 2_4 0cm 0% 4mph 5mph 1024mB
9:00 2185m 2°C 2_1 0cm 0% 1mph 1mph 1025mB
12:00 2235m 11°C 11_4 0cm 0% 4mph 2mph 1024mB
15:00 2181m 12°C 12_4 0cm 0% 4mph 4mph 1023mB
18:00 2317m 12°C 12_1 0cm 0% 1mph 2mph 1025mB
21:00 2250m 3°C 3_3 0cm 0% 3mph 4mph 1027mB
0:00 2266m 2°C 2_2 0cm 0% 2mph 3mph 1027mB
3:00 2318m 2°C 2_4 0cm 0% 4mph 5mph 1027mB
6:00 2412m 2°C 2_4 0cm 0% 4mph 5mph 1028mB
9:00 2547m 3°C 3_1 0cm 0% 1mph 1mph 1028mB
12:00 2591m 11°C 11_5 0cm 0% 5mph 3mph 1028mB
15:00 2530m 12°C 12_5 0cm 0% 5mph 4mph 1027mB
18:00 2730m 12°C 12_1 0cm 7% 1mph 2mph 1028mB
21:00 2942m 5°C 5_4 0cm 28% 4mph 5mph 1030mB
0:00 3001m 4°C 4_4 0cm 24% 4mph 5mph 1030mB
3:00 3140m 5°C 5_5 0cm 38% 5mph 6mph 1030mB
6:00 3273m 5°C 5_5 0cm 42% 5mph 6mph 1030mB
9:00 3333m 5°C 5_3 0cm 3% 3mph 3mph 1030mB
12:00 3437m 16°C 16_3 0cm 2% 3mph 2mph 1028mB
15:00 3506m 17°C 17_3 0cm 0% 3mph 3mph 1026mB
18:00 3543m 17°C 17_5 0cm 0% 5mph 6mph 1026mB
21:00 3605m 7°C 7_7 0cm 0% 7mph 8mph 1028mB
0:00 3697m 7°C 7_7 0cm 0% 7mph 8mph 1027mB
3:00 3749m 7°C 7_6 0cm 0% 6mph 7mph 1027mB
6:00 3793m 6°C 6_2 0cm 0% 2mph 3mph 1028mB
9:00 3828m 5°C 5_4 0cm 0% 4mph 6mph 1030mB
12:00 3825m 12°C 12_7 0cm 0% 7mph 6mph 1029mB
15:00 3771m 13°C 13_6 0cm 0% 6mph 4mph 1028mB
18:00 3717m 13°C 13_2 0cm 0% 2mph 2mph 1030mB
21:00 3571m 5°C 5_2 0cm 0% 2mph 3mph 1032mB
0:00 3354m 4°C 4_2 0cm 0% 2mph 2mph 1032mB
3:00 2968m 3°C 3_2 0cm 0% 2mph 2mph 1033mB
6:00 2375m 2°C 2_1 0cm 0% 1mph 1mph 1034mB
9:00 2092m 2°C 2_4 0cm 0% 4mph 6mph 1035mB
12:00 2386m 10°C 10_6 0cm 0% 6mph 4mph 1034mB
15:00 2600m 11°C 11_5 0cm 0% 5mph 4mph 1033mB
18:00 2931m 11°C 11_1 0cm 0% 1mph 2mph 1035mB
21:00 3266m 7°C 7_6 0cm 0% 6mph 7mph 1036mB
0:00 3419m 7°C 7_6 0cm 0% 6mph 7mph 1036mB
3:00 3439m 6°C 6_5 0cm 0% 5mph 6mph 1036mB
6:00 3437m 6°C 6_5 0cm 0% 5mph 5mph 1036mB
9:00 3417m 6°C 6_0 0cm 0% 0mph 0mph 1036mB
12:00 3385m 15°C 15_3 0cm 0% 3mph 2mph 1034mB
15:00 3344m 15°C 15_5 0cm 0% 5mph 3mph 1032mB
18:00 3316m 15°C 15_3 0cm 0% 3mph 3mph 1032mB
21:00 3333m 7°C 7_5 0cm 0% 5mph 6mph 1033mB
0:00 3378m 7°C 7_5 0cm 0% 5mph 6mph 1032mB
3:00 3382m 6°C 6_6 0cm 0% 6mph 6mph 1030mB
6:00 3391m 6°C 6_6 0cm 0% 6mph 6mph 1029mB
9:00 3444m 6°C 6_1 0cm 0% 1mph 2mph 1028mB
12:00 3445m 15°C 15_4 0cm 0% 4mph 5mph 1027mB
15:00 3436m 15°C 15_5 0cm 0% 5mph 4mph 1025mB
18:00 3424m 15°C 15_3 0cm 0% 3mph 4mph 1026mB
21:00 3409m 7°C 7_5 0cm 0% 5mph 6mph 1027mB
0:00 3386m 7°C 7_6 0cm 0% 6mph 7mph 1028mB
3:00 3331m 7°C 7_6 0cm 0% 6mph 7mph 1028mB
6:00 3285m 7°C 7_6 0cm 0% 6mph 7mph 1029mB
Afternoon 0mm 0 3227m 16°C 16_3 0cm 0% 3mph 4mph 1029mB
Morning 0mm 0 2995m 5°C 5_5 0cm 0% 5mph 6mph 1032mB
Afternoon 0mm 0 2955m 14°C 14_3 0cm 0% 3mph 4mph 1031mB
Morning 0mm 0 2906m 2°C 2_2 0cm 0% 2mph 2mph 1032mB
Afternoon 0mm 0 2708m 11°C 11_3 0cm 0% 3mph 5mph 1031mB
Morning 0mm 0 1591m 0°C 0_1 0cm 0% 1mph 3mph 1035mB
Afternoon 0mm 0 2499m 10°C 10_4 0cm 0% 4mph 5mph 1033mB
Morning 0mm 0 2507m 2°C 2_6 0cm 0% 6mph 7mph 1034mB
Afternoon 0mm 0 2488m 15°C 15_3 0cm 0% 3mph 5mph 1030mB
Morning 0mm 0 2390m 4°C 4_7 0cm 0% 7mph 8mph 1030mB
Afternoon 0mm 0.0625 2260m 14°C 14_1 0cm 37% 1mph 2mph 1027mB
Morning 0.015625mm 0.0625 2055m 2°C 2_1 0cm 47% 1mph 3mph 1030mB

16 day outlook at a glance

Forecast issued: 2/17/2019 1:32:50 PM

Chat

Your comments and questions. In a resort? Let us know what it's like!


Characters left 250

For terms and conditions see Readers Comments on the Cookie and privacy policy page.